Time,TemperatureF,DewpointF,PressureIn,WindDirection,WindDirectionDegrees,WindSpeedMPH,WindSpeedGustMPH,Humidity,HourlyPrecipIn,Conditions,Clouds,dailyrainin,SoftwareType,DateUTC
2013-10-17 00:04:00,60.0,0.0,30.11,NNE,26,1.0,3.0,21,-99.99,,,-99.99,,2013-10-17 07:04:00,
2013-10-17 00:16:00,60.0,0.0,30.10,NE,44,5.0,5.0,21,-99.99,,,-99.99,,2013-10-17 07:16:00,
2013-10-17 00:24:00,60.0,0.0,30.10,NE,56,5.0,6.0,21,-99.99,,,-99.99,,2013-10-17 07:24:00,
2013-10-17 00:32:00,59.0,0.0,30.10,NE,53,3.0,6.0,21,-99.99,,,-99.99,,2013-10-17 07:32:00,
2013-10-17 00:40:00,58.0,0.0,30.10,NE,41,3.0,5.0,23,-99.99,,,-99.99,,2013-10-17 07:40:00,
2013-10-17 00:48:00,58.0,0.0,30.10,NE,42,3.0,5.0,24,-99.99,,,-99.99,,2013-10-17 07:48:00,
2013-10-17 01:00:00,59.0,0.0,30.10,NE,46,5.0,6.0,23,-99.99,,,-99.99,,2013-10-17 08:00:00,
2013-10-17 01:08:00,58.0,0.0,30.10,NNE,24,3.0,7.0,23,-99.99,,,-99.99,,2013-10-17 08:08:00,
2013-10-17 01:16:00,58.0,0.0,30.10,NNE,25,5.0,6.0,22,-99.99,,,-99.99,,2013-10-17 08:16:00,
2013-10-17 01:20:00,58.0,0.0,30.09,NE,39,3.0,6.0,25,-99.99,,,-99.99,,2013-10-17 08:20:00,
2013-10-17 01:28:00,58.0,0.0,30.09,North,351,2.0,6.0,23,-99.99,,,-99.99,,2013-10-17 08:28:00,
2013-10-17 01:36:00,58.0,0.0,30.09,North,11,2.0,6.0,22,-99.99,,,-99.99,,2013-10-17 08:36:00,
2013-10-17 01:44:00,57.0,0.0,30.09,NE,37,3.0,6.0,22,-99.99,,,-99.99,,2013-10-17 08:44:00,
2013-10-17 01:52:00,57.0,0.0,30.09,NNE,16,2.0,7.0,22,-99.99,,,-99.99,,2013-10-17 08:52:00,
2013-10-17 02:00:00,57.0,0.0,30.09,NNE,29,2.0,7.0,23,-99.99,,,-99.99,,2013-10-17 09:00:00,
2013-10-17 02:08:00,57.0,0.0,30.10,NE,40,3.0,7.0,23,-99.99,,,-99.99,,2013-10-17 09:08:00,
2013-10-17 02:16:00,56.0,0.0,30.09,NNE,24,3.0,6.0,23,-99.99,,,-99.99,,2013-10-17 09:16:00,
2013-10-17 02:24:00,56.0,0.0,30.09,NE,42,5.0,8.0,23,-99.99,,,-99.99,,2013-10-17 09:24:00,
2013-10-17 02:32:00,56.0,0.0,30.09,NE,43,5.0,8.0,24,-99.99,,,-99.99,,2013-10-17 09:32:00,
2013-10-17 02:40:00,56.0,0.0,30.09,NE,37,6.0,7.0,24,-99.99,,,-99.99,,2013-10-17 09:40:00,
2013-10-17 02:48:00,56.0,0.0,30.09,NE,40,5.0,7.0,25,-99.99,,,-99.99,,2013-10-17 09:48:00,
2013-10-17 03:00:00,56.0,0.0,30.09,North,8,2.0,6.0,24,-99.99,,,-99.99,,2013-10-17 10:00:00,
2013-10-17 03:08:00,57.0,0.0,30.09,NNW,345,3.0,6.0,24,-99.99,,,-99.99,,2013-10-17 10:08:00,
2013-10-17 03:16:00,58.0,0.0,30.08,NE,39,3.0,5.0,22,-99.99,,,-99.99,,2013-10-17 10:16:00,
2013-10-17 03:24:00,58.0,0.0,30.09,NNE,22,1.0,3.0,23,-99.99,,,-99.99,,2013-10-17 10:24:00,
2013-10-17 03:32:00,57.0,0.0,30.08,WNW,283,2.0,2.0,23,-99.99,,,-99.99,,2013-10-17 10:32:00,
2013-10-17 03:40:00,57.0,0.0,30.08,ENE,73,3.0,3.0,23,-99.99,,,-99.99,,2013-10-17 10:40:00,
2013-10-17 03:48:00,56.0,0.0,30.08,ENE,68,5.0,5.0,23,-99.99,,,-99.99,,2013-10-17 10:48:00,
2013-10-17 03:56:00,56.0,0.0,30.08,NE,40,2.0,5.0,24,-99.99,,,-99.99,,2013-10-17 10:56:00,
2013-10-17 04:04:00,56.0,0.0,30.08,NNE,15,0.0,5.0,23,-99.99,,,-99.99,,2013-10-17 11:04:00,
2013-10-17 04:12:00,57.0,0.0,30.08,NW,325,3.0,5.0,23,-99.99,,,-99.99,,2013-10-17 11:12:00,
2013-10-17 04:20:00,57.0,0.0,30.08,NNW,327,5.0,6.0,23,-99.99,,,-99.99,,2013-10-17 11:20:00,
2013-10-17 04:28:00,56.0,0.0,30.08,NNW,343,2.0,6.0,26,-99.99,,,-99.99,,2013-10-17 11:28:00,
2013-10-17 04:36:00,56.0,0.0,30.08,West,275,2.0,3.0,26,-99.99,,,-99.99,,2013-10-17 11:36:00,
2013-10-17 04:44:00,56.0,0.0,30.08,West,259,3.0,3.0,26,-99.99,,,-99.99,,2013-10-17 11:44:00,
2013-10-17 04:52:00,55.0,0.0,30.09,NW,317,3.0,3.0,23,-99.99,,,-99.99,,2013-10-17 11:52:00,
2013-10-17 05:00:00,55.0,0.0,30.09,NNW,336,3.0,5.0,24,-99.99,,,-99.99,,2013-10-17 12:00:00,
2013-10-17 05:08:00,55.0,0.0,30.09,NNW,346,3.0,5.0,24,-99.99,,,-99.99,,2013-10-17 12:08:00,
2013-10-17 05:16:00,56.0,0.0,30.09,NW,319,2.0,5.0,22,-99.99,,,-99.99,,2013-10-17 12:16:00,
2013-10-17 05:24:00,57.0,0.0,30.09,NW,305,0.0,3.0,24,-99.99,,,-99.99,,2013-10-17 12:24:00,
2013-10-17 05:32:00,57.0,0.0,30.09,ENE,58,1.0,2.0,22,-99.99,,,-99.99,,2013-10-17 12:32:00,
2013-10-17 05:40:00,55.0,0.0,30.09,NNW,348,2.0,3.0,22,-99.99,,,-99.99,,2013-10-17 12:40:00,
2013-10-17 05:48:00,53.0,0.0,30.09,NNE,20,1.0,3.0,27,-99.99,,,-99.99,,2013-10-17 12:48:00,
2013-10-17 06:00:00,53.0,0.0,30.09,North,356,2.0,6.0,25,-99.99,,,-99.99,,2013-10-17 13:00:00,
2013-10-17 06:08:00,54.0,0.0,30.09,NNW,344,6.0,7.0,25,-99.99,,,-99.99,,2013-10-17 13:08:00,
2013-10-17 06:16:00,53.0,0.0,30.10,North,353,2.0,7.0,25,-99.99,,,-99.99,,2013-10-17 13:16:00,
2013-10-17 06:24:00,52.0,0.0,30.10,North,353,1.0,6.0,26,-99.99,,,-99.99,,2013-10-17 13:24:00,
2013-10-17 06:32:00,52.0,0.0,30.10,NNW,343,1.0,2.0,25,-99.99,,,-99.99,,2013-10-17 13:32:00,
2013-10-17 06:40:00,54.0,0.0,30.10,North,354,1.0,3.0,24,-99.99,,,-99.99,,2013-10-17 13:40:00,
2013-10-17 06:48:00,54.0,0.0,30.10,NE,51,1.0,3.0,24,-99.99,,,-99.99,,2013-10-17 13:48:00,
2013-10-17 06:56:00,54.0,0.0,30.10,North,355,2.0,3.0,24,-99.99,,,-99.99,,2013-10-17 13:56:00,
2013-10-17 07:04:00,54.0,0.0,30.10,NNE,25,1.0,3.0,24,-99.99,,,-99.99,,2013-10-17 14:04:00,
2013-10-17 07:12:00,54.0,0.0,30.10,North,355,1.0,2.0,24,-99.99,,,-99.99,,2013-10-17 14:12:00,
2013-10-17 07:20:00,53.0,0.0,30.10,North,1,1.0,2.0,24,-99.99,,,-99.99,,2013-10-17 14:20:00,
2013-10-17 07:28:00,54.0,0.0,30.10,North,349,1.0,2.0,23,-99.99,,,-99.99,,2013-10-17 14:28:00,
2013-10-17 07:36:00,54.0,0.0,30.10,NNE,29,2.0,2.0,24,-99.99,,,-99.99,,2013-10-17 14:36:00,
2013-10-17 07:44:00,54.0,0.0,30.10,NE,45,1.0,2.0,24,-99.99,,,-99.99,,2013-10-17 14:44:00,
2013-10-17 07:52:00,55.0,0.0,30.10,NE,43,2.0,2.0,23,-99.99,,,-99.99,,2013-10-17 14:52:00,
2013-10-17 08:04:00,56.0,0.0,30.11,SSE,154,2.0,2.0,24,-99.99,,,-99.99,,2013-10-17 15:04:00,
2013-10-17 08:12:00,56.0,0.0,30.11,SW,221,1.0,3.0,24,-99.99,,,-99.99,,2013-10-17 15:12:00,
2013-10-17 08:20:00,56.0,0.0,30.11,SW,221,0.0,1.0,23,-99.99,,,-99.99,,2013-10-17 15:20:00,
2013-10-17 08:28:00,56.0,0.0,30.11,SSW,210,2.0,5.0,25,-99.99,,,-99.99,,2013-10-17 15:28:00,
2013-10-17 08:36:00,57.0,0.0,30.11,WSW,239,2.0,3.0,22,-99.99,,,-99.99,,2013-10-17 15:36:00,
2013-10-17 08:44:00,57.0,0.0,30.12,WSW,251,5.0,5.0,22,-99.99,,,-99.99,,2013-10-17 15:44:00,
2013-10-17 08:52:00,58.0,0.0,30.12,West,265,2.0,5.0,23,-99.99,,,-99.99,,2013-10-17 15:52:00,
2013-10-17 09:00:00,59.0,0.0,30.12,ENE,57,3.0,3.0,21,-99.99,,,-99.99,,2013-10-17 16:00:00,
2013-10-17 09:08:00,60.0,0.0,30.12,ENE,65,0.0,3.0,21,-99.99,,,-99.99,,2013-10-17 16:08:00,
2013-10-17 09:16:00,62.0,0.0,30.12,North,1,0.0,2.0,21,-99.99,,,-99.99,,2013-10-17 16:16:00,
2013-10-17 09:24:00,63.0,0.0,30.12,ENE,77,0.0,2.0,20,-99.99,,,-99.99,,2013-10-17 16:24:00,
2013-10-17 09:32:00,66.0,0.0,30.11,NE,46,1.0,3.0,19,-99.99,,,-99.99,,2013-10-17 16:32:00,
2013-10-17 09:40:00,64.0,0.0,30.11,North,10,0.0,2.0,19,-99.99,,,-99.99,,2013-10-17 16:40:00,
2013-10-17 09:48:00,66.0,0.0,30.11,NE,55,3.0,5.0,18,-99.99,,,-99.99,,2013-10-17 16:48:00,
2013-10-17 09:56:00,65.0,0.0,30.11,East,79,5.0,7.0,18,-99.99,,,-99.99,,2013-10-17 16:56:00,
2013-10-17 10:04:00,65.0,0.0,30.11,East,97,3.0,7.0,18,-99.99,,,-99.99,,2013-10-17 17:04:00,
2013-10-17 10:12:00,66.0,0.0,30.11,SE,128,5.0,6.0,20,-99.99,,,-99.99,,2013-10-17 17:12:00,
2013-10-17 10:20:00,66.0,0.0,30.11,SE,127,2.0,5.0,19,-99.99,,,-99.99,,2013-10-17 17:20:00,
2013-10-17 10:28:00,67.0,0.0,30.11,SE,144,2.0,5.0,18,-99.99,,,-99.99,,2013-10-17 17:28:00,
2013-10-17 10:36:00,66.0,0.0,30.11,SSE,163,2.0,6.0,19,-99.99,,,-99.99,,2013-10-17 17:36:00,
2013-10-17 10:44:00,66.0,0.0,30.11,South,182,5.0,8.0,20,-99.99,,,-99.99,,2013-10-17 17:44:00,
2013-10-17 10:52:00,66.0,0.0,30.11,South,178,3.0,8.0,21,-99.99,,,-99.99,,2013-10-17 17:52:00,
2013-10-17 11:00:00,66.0,0.0,30.11,SSE,153,2.0,7.0,18,-99.99,,,-99.99,,2013-10-17 18:00:00,
2013-10-17 11:08:00,67.0,0.0,30.10,SSE,165,8.0,9.0,17,-99.99,,,-99.99,,2013-10-17 18:08:00,
2013-10-17 11:16:00,68.0,0.0,30.10,SE,129,6.0,9.0,20,-99.99,,,-99.99,,2013-10-17 18:16:00,
2013-10-17 11:24:00,68.0,0.0,30.10,SSE,151,6.0,12.0,17,-99.99,,,-99.99,,2013-10-17 18:24:00,
2013-10-17 11:32:00,68.0,0.0,30.09,South,169,6.0,9.0,18,-99.99,,,-99.99,,2013-10-17 18:32:00,
2013-10-17 11:40:00,69.0,0.0,30.09,SSE,151,5.0,10.0,18,-99.99,,,-99.99,,2013-10-17 18:40:00,
2013-10-17 11:48:00,69.0,0.0,30.09,SE,143,3.0,10.0,18,-99.99,,,-99.99,,2013-10-17 18:48:00,
2013-10-17 11:56:00,70.0,0.0,30.08,SSE,163,3.0,9.0,17,-99.99,,,-99.99,,2013-10-17 18:56:00,
2013-10-17 12:04:00,71.0,0.0,30.08,SSE,167,2.0,8.0,17,-99.99,,,-99.99,,2013-10-17 19:04:00,
2013-10-17 12:12:00,71.0,0.0,30.08,SE,143,7.0,10.0,16,-99.99,,,-99.99,,2013-10-17 19:12:00,
2013-10-17 12:20:00,71.0,0.0,30.07,SE,140,3.0,10.0,17,-99.99,,,-99.99,,2013-10-17 19:20:00,
2013-10-17 12:28:00,72.0,0.0,30.07,SE,131,5.0,12.0,16,-99.99,,,-99.99,,2013-10-17 19:28:00,
2013-10-17 12:36:00,73.0,0.0,30.07,SE,127,5.0,12.0,16,-99.99,,,-99.99,,2013-10-17 19:36:00,
2013-10-17 12:44:00,73.0,0.0,30.06,SSE,154,5.0,10.0,16,-99.99,,,-99.99,,2013-10-17 19:44:00,
2013-10-17 12:48:00,74.0,0.0,30.06,ESE,121,7.0,12.0,15,-99.99,,,-99.99,,2013-10-17 19:48:00,
2013-10-17 12:56:00,73.0,0.0,30.06,SSE,159,9.0,12.0,17,-99.99,,,-99.99,,2013-10-17 19:56:00,
2013-10-17 13:04:00,74.0,0.0,30.05,SSW,196,7.0,12.0,15,-99.99,,,-99.99,,2013-10-17 20:04:00,
2013-10-17 13:12:00,75.0,0.0,30.05,SSE,150,7.0,12.0,16,-99.99,,,-99.99,,2013-10-17 20:12:00,
2013-10-17 13:20:00,73.0,0.0,30.04,SSE,165,7.0,14.0,18,-99.99,,,-99.99,,2013-10-17 20:20:00,
2013-10-17 13:28:00,75.0,0.0,30.04,SSE,154,8.0,13.0,18,-99.99,,,-99.99,,2013-10-17 20:28:00,
2013-10-17 13:36:00,77.0,0.0,30.03,SE,129,8.0,12.0,14,-99.99,,,-99.99,,2013-10-17 20:36:00,
2013-10-17 13:44:00,76.0,0.0,30.03,SE,145,6.0,12.0,16,-99.99,,,-99.99,,2013-10-17 20:44:00,
2013-10-17 13:52:00,76.0,0.0,30.03,SE,146,3.0,14.0,14,-99.99,,,-99.99,,2013-10-17 20:52:00,
2013-10-17 14:00:00,74.0,0.0,30.02,South,173,6.0,9.0,15,-99.99,,,-99.99,,2013-10-17 21:00:00,
2013-10-17 14:08:00,76.0,0.0,30.02,SE,145,6.0,12.0,14,-99.99,,,-99.99,,2013-10-17 21:08:00,
2013-10-17 14:16:00,79.0,0.0,30.02,SE,139,5.0,10.0,14,-99.99,,,-99.99,,2013-10-17 21:16:00,
2013-10-17 14:24:00,78.0,0.0,30.02,SSE,154,6.0,9.0,14,-99.99,,,-99.99,,2013-10-17 21:24:00,
2013-10-17 14:32:00,79.0,0.0,30.02,SSE,159,8.0,9.0,14,-99.99,,,-99.99,,2013-10-17 21:32:00,
2013-10-17 14:40:00,78.0,0.0,30.01,SE,125,7.0,9.0,16,-99.99,,,-99.99,,2013-10-17 21:40:00,
2013-10-17 14:48:00,78.0,0.0,30.01,ESE,123,7.0,9.0,15,-99.99,,,-99.99,,2013-10-17 21:48:00,
2013-10-17 15:00:00,77.0,0.0,30.01,South,172,2.0,8.0,14,-99.99,,,-99.99,,2013-10-17 22:00:00,
2013-10-17 15:08:00,78.0,0.0,30.00,SE,135,7.0,10.0,14,-99.99,,,-99.99,,2013-10-17 22:08:00,
2013-10-17 15:16:00,80.0,0.0,30.00,SE,145,6.0,12.0,14,-99.99,,,-99.99,,2013-10-17 22:16:00,
2013-10-17 15:24:00,79.0,0.0,30.00,South,173,7.0,9.0,14,-99.99,,,-99.99,,2013-10-17 22:24:00,
2013-10-17 15:32:00,78.0,0.0,30.00,SSE,163,7.0,9.0,14,-99.99,,,-99.99,,2013-10-17 22:32:00,
2013-10-17 15:40:00,79.0,0.0,30.00,SW,214,1.0,10.0,14,-99.99,,,-99.99,,2013-10-17 22:40:00,
2013-10-17 15:48:00,78.0,0.0,30.00,South,180,6.0,9.0,13,-99.99,,,-99.99,,2013-10-17 22:48:00,
2013-10-17 15:56:00,79.0,0.0,30.00,SE,126,2.0,9.0,15,-99.99,,,-99.99,,2013-10-17 22:56:00,
2013-10-17 16:04:00,81.0,0.0,30.00,SSE,152,1.0,7.0,14,-99.99,,,-99.99,,2013-10-17 23:04:00,
2013-10-17 16:16:00,78.0,0.0,29.99,SE,137,2.0,9.0,16,-99.99,,,-99.99,,2013-10-17 23:16:00,
2013-10-17 16:24:00,81.0,0.0,29.99,SE,124,2.0,9.0,15,-99.99,,,-99.99,,2013-10-17 23:24:00,
2013-10-17 16:32:00,81.0,0.0,29.99,SE,146,3.0,9.0,15,-99.99,,,-99.99,,2013-10-17 23:32:00,
2013-10-17 16:40:00,80.0,0.0,29.98,SE,129,7.0,7.0,15,-99.99,,,-99.99,,2013-10-17 23:40:00,
2013-10-17 16:48:00,81.0,0.0,29.98,SE,140,3.0,8.0,14,-99.99,,,-99.99,,2013-10-17 23:48:00,
2013-10-17 16:56:00,78.0,0.0,29.98,South,184,3.0,8.0,14,-99.99,,,-99.99,,2013-10-17 23:56:00,
2013-10-17 17:04:00,79.0,0.0,29.98,South,183,5.0,8.0,15,-99.99,,,-99.99,,2013-10-18 00:04:00,
2013-10-17 17:12:00,76.0,0.0,29.98,South,177,6.0,9.0,16,-99.99,,,-99.99,,2013-10-18 00:12:00,
2013-10-17 17:20:00,76.0,0.0,29.98,South,171,3.0,9.0,15,-99.99,,,-99.99,,2013-10-18 00:20:00,
2013-10-17 17:28:00,76.0,0.0,29.98,SSE,157,5.0,8.0,15,-99.99,,,-99.99,,2013-10-18 00:28:00,
2013-10-17 17:36:00,75.0,0.0,29.98,SW,217,7.0,8.0,15,-99.99,,,-99.99,,2013-10-18 00:36:00,
2013-10-17 17:44:00,74.0,0.0,29.98,SSW,197,5.0,7.0,15,-99.99,,,-99.99,,2013-10-18 00:44:00,
2013-10-17 17:52:00,74.0,0.0,29.98,SSW,201,3.0,7.0,15,-99.99,,,-99.99,,2013-10-18 00:52:00,
2013-10-17 18:00:00,73.0,0.0,29.98,South,183,3.0,5.0,15,-99.99,,,-99.99,,2013-10-18 01:00:00,
2013-10-17 18:08:00,72.0,0.0,29.98,South,190,3.0,5.0,15,-99.99,,,-99.99,,2013-10-18 01:08:00,
2013-10-17 18:16:00,72.0,0.0,29.98,SSW,199,2.0,3.0,16,-99.99,,,-99.99,,2013-10-18 01:16:00,
2013-10-17 18:24:00,72.0,0.0,29.98,SW,216,2.0,3.0,16,-99.99,,,-99.99,,2013-10-18 01:24:00,
2013-10-17 18:32:00,72.0,0.0,29.98,SW,216,2.0,2.0,17,-99.99,,,-99.99,,2013-10-18 01:32:00,
2013-10-17 18:40:00,72.0,0.0,29.99,SW,217,2.0,3.0,16,-99.99,,,-99.99,,2013-10-18 01:40:00,
2013-10-17 18:48:00,72.0,0.0,29.99,SW,226,1.0,3.0,16,-99.99,,,-99.99,,2013-10-18 01:48:00,
2013-10-17 18:56:00,71.0,0.0,29.99,SW,227,0.0,1.0,17,-99.99,,,-99.99,,2013-10-18 01:56:00,
2013-10-17 19:04:00,71.0,0.0,30.00,SW,234,0.0,0.0,17,-99.99,,,-99.99,,2013-10-18 02:04:00,
2013-10-17 19:12:00,70.0,0.0,30.00,WSW,254,0.0,0.0,17,-99.99,,,-99.99,,2013-10-18 02:12:00,
2013-10-17 19:20:00,70.0,0.0,30.00,NW,326,2.0,3.0,16,-99.99,,,-99.99,,2013-10-18 02:20:00,
2013-10-17 19:28:00,70.0,0.0,30.00,North,352,2.0,3.0,16,-99.99,,,-99.99,,2013-10-18 02:28:00,
2013-10-17 19:36:00,69.0,0.0,30.01,NNW,345,3.0,5.0,17,-99.99,,,-99.99,,2013-10-18 02:36:00,
2013-10-17 19:44:00,69.0,0.0,30.01,North,354,2.0,5.0,17,-99.99,,,-99.99,,2013-10-18 02:44:00,
2013-10-17 19:52:00,68.0,0.0,30.01,North,354,1.0,3.0,16,-99.99,,,-99.99,,2013-10-18 02:52:00,
2013-10-17 20:00:00,68.0,0.0,30.01,North,355,2.0,3.0,16,-99.99,,,-99.99,,2013-10-18 03:00:00,
2013-10-17 20:08:00,69.0,0.0,30.01,North,355,2.0,3.0,19,-99.99,,,-99.99,,2013-10-18 03:08:00,
2013-10-17 20:16:00,68.0,0.0,30.01,NNE,25,1.0,2.0,17,-99.99,,,-99.99,,2013-10-18 03:16:00,